This demonstration page uses our WeatherBlox Daily Observations layout. Learn more.

Left ArrowRight Arrow

44.8408, -93.29828

Hourly Observations for November 13, 2019

Temp ( °F °C ) Dew Point ( °F °C ) Humidity (%) Winds ( mph kmh ) Pressure ( in mb ) Visibility ( mi km ) Precip ( " mm )
12:53 am 00:53 Cloudy 19 -7.2 6 -14.4 57 57 S 18 30 30.04 1017 10 16 0.00 0.00
1:53 am 01:53 Cloudy 20 -6.7 7 -13.9 57 57 S 14 22 30.00 1016 10 16 0.00 0.00
2:53 am 02:53 Cloudy 20 -6.7 8 -13.3 60 60 S 12 19 29.99 1016 10 16 0.00 0.00
3:53 am 03:53 Cloudy 21 -6.1 9 -12.8 59 59 SSE 12 19 29.96 1015 10 16 0.00 0.00
4:53 am 04:53 Cloudy 21 -6.1 9 -12.8 59 59 SSE 12 19 29.94 1014 10 16 0.00 0.00
5:53 am 05:53 Cloudy 21 -6.1 10 -12.2 62 62 S 12 19 29.93 1014 10 16 0.00 0.00
6:53 am 06:53 Cloudy 22 -5.6 11 -11.7 63 63 S 10 17 29.93 1013 10 16 0.00 0.00
7:53 am 07:53 Cloudy 22 -5.6 12 -11.1 66 66 SSE 7 11 29.93 1014 10 16 0.00 0.00
8:53 am 08:53 Cloudy 23 -5 12 -11.1 63 63 SSE 8 13 29.95 1014 10 16 0.00 0.00
9:53 am 09:53 Cloudy with Light Snow 24 -4.4 14 -10 65 65 SE 7 11 29.95 1014 2 3 0.00 0.00
10:07 am 10:07 Cloudy with Light Snow 24 -4.4 15 -9.4 68 68 SSE 5 7 29.98 1015 2 3 0.00 0.00
10:28 am 10:28 Cloudy with Light Snow 24 -4.4 17 -8.3 75 75 S 5 7 29.99 1016 1 2 0.00 0.00
10:53 am 10:53 Cloudy with Light Snow 23 -5 18 -7.8 81 81 SSE 6 9 29.98 1015 1 2 0.01 0.25
11:19 am 11:19 Cloudy with Light Snow 24 -4.4 19 -7.2 81 81 SE 7 11 29.99 1016 1 1 0.01 0.25
11:27 am 11:27 Cloudy with Light Snow 24 -4.4 19 -7.2 81 81 ESE 6 9 29.99 1016 1 2 0.01 0.25
11:53 am 11:53 Cloudy with Light Snow 24 -4.4 20 -6.7 84 84 SE 5 7 29.96 1015 1 2 0.01 0.25
12:34 pm 12:34 Cloudy with Light Snow 25 -3.9 21 -6.1 85 85 Calm 29.97 1015 1 2 0.02 0.51
12:46 pm 12:46 Cloudy with Light Snow 26 -3.3 21 -6.1 81 81 Calm 29.97 1015 2 3 0.02 0.51
12:53 pm 12:53 Cloudy with Light Snow 26 -3.3 22 -5.6 84 84 Calm 29.95 1014 4 6 0.02 0.51
1:08 pm 13:08 Cloudy with Light Snow 26 -3.3 22 -5.6 84 84 Calm 29.97 1015 3 4 0.00 0.00
1:28 pm 13:28 Cloudy with Light Snow 26 -3.3 22 -5.6 84 84 Calm 29.97 1015 2 3 0.00 0.00
1:36 pm 13:36 Cloudy with Light Snow 26 -3.3 22 -5.6 84 84 Calm 29.98 1015 2 2 0.00 0.00
1:53 pm 13:53 Cloudy with Light Snow 27 -2.8 22 -5.6 81 81 Calm 29.95 1014 2 3 0.00 0.00
2:27 pm 14:27 Cloudy with Haze 28 -2.2 23 -5 81 81 Calm 29.97 1015 5 8 0.01 0.25
2:42 pm 14:42 Cloudy 28 -2.2 22 -5.6 78 78 W 3 6 29.97 1015 9 14 0.01 0.25
2:53 pm 14:53 Cloudy 28 -2.2 22 -5.6 78 78 WNW 3 6 29.96 1015 9 14 0.01 0.25
3:53 pm 15:53 Cloudy 28 -2.2 21 -6.1 75 75 WNW 6 9 29.98 1015 9 14 0.00 0.00
4:53 pm 16:53 Cloudy 28 -2.2 21 -6.1 75 75 NW 8 13 30.00 1016 10 16 0.00 0.00
5:53 pm 17:53 Cloudy 28 -2.2 21 -6.1 75 75 NNW 9 15 30.03 1017 8 13 0.00 0.00
6:53 pm 18:53 Cloudy 28 -2.2 20 -6.7 72 72 NNW 7 11 30.06 1018 10 16 0.00 0.00
7:53 pm 19:53 Cloudy 28 -2.2 20 -6.7 72 72 NNW 9 15 30.07 1018 9 14 0.00 0.00
8:53 pm 20:53 Cloudy 27 -2.8 18 -7.8 69 69 N 8 13 30.09 1019 10 16 0.00 0.00
9:53 pm 21:53 Cloudy 27 -2.8 18 -7.8 69 69 N 7 11 30.11 1020 10 16 0.00 0.00
10:53 pm 22:53 Cloudy 27 -2.8 18 -7.8 69 69 NNE 6 9 30.12 1020 10 16 0.00 0.00
11:53 pm 23:53 Cloudy 27 -2.8 18 -7.8 69 69 N 7 11 30.13 1020 10 16 0.00 0.00

Powered by AerisWeather